[Date Prev][Date Next][Thread Prev][Thread Next][Date Index][Thread Index]

[jamsat-news:1055] jas2info #127



=========================   最新情報   ==============================

        Last updated :Sat.27-Mar.-1999 14:30 (JST) #127

====================================================================
   
     衛星情報 FOシリーズの軌道要素、テレメトリ、QSOの状況等を
   まとめてみました.

  1)  FO−29(ふじ3号)は3月27日(土)13:23(JST)のパス
     ではFMの「ホーホケキョ This is JAS−2」と鶯の鳴き声、女性のメッセ
     ージがデジトーカで流れていました.周波数はいつものように435.918
     MHzより435.903MHzまででした.信号は力強くRS59+20
     dbで安定して聞こえました.
       
 ■ 軌道要素1:「jamsatーkeps:873」より
                 SB KEPS @ AMSAT  $ORB99085.N
                 2Line Orbital Elements 99085.AMSAT

  HR AMSAT ORBITAL ELEMENTS FOR AMATEUR SATELLITES IN NASA FORMAT
  FROM WA5QGD FORT WORTH,TX March 26, 1999
  SEND SUBSCRIBE/UNSUBSCRIBE TO majordomo@amsat.org ONLY
  BID: ORB99085.N

 DECODE 2-LINE ELSETS WITH THE FOLLOWING KEY:
 1 AAAAAU 00  0  0 BBBBB.BBBBBBBB  .CCCCCCCC  00000-0  00000-0 0  DDDZ
 2 AAAAA EEE.EEEE FFF.FFFF GGGGGGG HHH.HHHH III.IIII JJ.JJJJJJJJKKKKKZ
 KEY: A-CATALOGNUM B-EPOCHTIME C-DECAY D-ELSETNUM E-INCLINATION F-RAAN
 G-ECCENTRICITY H-ARGPERIGEE I-MNANOM J-MNMOTION K-ORBITNUM Z-CHECKSUM

 TO ALL RADIO AMATEURS BT

   FO-29
  1 24278U 96046B   99082.92540528 -.00000014  00000-0  24869-4 0 02432
  2 24278 098.5495 045.4998 0351238 315.1122 042.2097 13.52663816128287
   
 ■ 軌道要素2:「jamsatーkeps:874」より
                 SB KEPS @ AMSAT  $ORB99085.O
                 Orbital Elements  99085.OSCAR

  HR AMSAT ORBITAL ELEMENTS FOR OSCAR SATELLITES
  FROM WA5QGD FORT WORTH,TX March 26, 1999
  SEND SUBSCRIBE/UNSUBSCRIBE TO majordomo@amsat.org ONLY
  BID: ORB99085.O
  TO ALL RADIO AMATEURS BT

  
  Satellite: FO-29
 Catalog number: 24278
 Epoch time:      99082.92540528
 Element set:    0243
 Inclination:      098.5495 deg
 RA of node:       045.4998 deg
 Eccentricity:    0.0351238
 Arg of perigee:   315.1122 deg
 Mean anomaly:     042.2097 deg
 Mean motion:   13.52663816 rev/day
 Decay rate:       -1.4e-07 rev/day^2
 Epoch rev:           12828
 Checksum:              325
 -----------------------------------------------------------
 
 *計算処理は OFFICE 97 を使用. 
===============================================================================
  2)FO−20(ふじ2号)のCWテレメトリは3月24日(水)18:07(JST)の
     パスではテレメトリーが単一トーンの連続音から唸りを伴った連続音、さらにゆらぎの
     ある信号になり、いままでより若干信号が弱くなっていました.
---------------------------------------------------------------------------

 ■ 軌道要素1 :出典は「ふじ3号」に同じ. 
  
  FO-20
  1 20480U 90013C   99083.12069812 -.00000045  00000-0 -25383-4 0 01320
  2 20480 099.0336 294.0103 0540434 357.4404 002.3956 12.83250316427427
 
 ■ 軌道要素2 :出典は「ふじ3号」に同じ.  
               
 Satellite: FO-20
 Catalog number: 20480
 Epoch time:      99083.12069812
 Element set:    0132
 Inclination:      099.0336 deg
 RA of node:       294.0103 deg
 Eccentricity:    0.0540434
 Arg of perigee:   357.4404 deg
 Mean anomaly:     002.3956 deg
 Mean motion:   12.83250316 rev/day
 Decay rate:       -4.5e-07 rev/day^2
 Epoch rev:           42742
 Checksum:              272
 
  ====================    FO-20のQSOの状況 ==========================
  =====================================================================
 3)JARL のホームページに新しい運用追加予定が記載されていましたのでご紹介します.
       ( http://www.jarl.or.jp/Japanese/3_Fuji/uy.htm )

        ■ ふじ3号/FO−29 ■  
  
  ふじ3号(JAS−2) 運用予定
   *** 運用日程について ***
     3月19日 〜 3月29日     デジトーカ運用(:FM音声メッセージ送信)
   3月29日 〜 4月 5日     アナログ系運用
   4月 5日 〜 4月12日     デジタル系1200bpsメールボックス運用  
   4月12日 〜 4月27日     アナログ系運用
   ☆4月28日  〜  5月  6日     デジトーカ運用(:FM音声メッセージ送信)

 * 運用日程の変更についても詳しく閲覧できるようになっていますので参照下さい.

        ■ ふじ2号/FO−20 ■      
            「ふじ2号」 現況                                                                                               
   JAS-1b/FO-20(ふじ2号)の不具合発生について
    JAS-1b(ふじ2号)のCWテレメトリ信号に,1997年10月12日12時
 (JST)の日本上空通過時,3桁の数字が繰り返されるはずが3個の長音の
  繰り返しとなっているという異常が発見されました。この不具合は次の通過時
  からは回復していましたが13日15時20分の通過時に再び観測されました。
  衛星のアナログ系中継モード動作は異常が無く,正常時のテレメトリ内容からは
  衛星の動作に異常は認められません。従って,直ちに衛星のミッションに影響す
  ることは無いと予想されますので,当面はアナログ系中継モードを継続します。
  衛星は既に打ち上げてから7年8ヶ月を経ておりますので,今後は監視を強化す
  る予定です。アマチュア各位のレポートをお待ちします.   
  
  以上  http://www.jarl.or.jp/Japanese/3_Fuji/fuji.htm
                                           
   =============   JAS-2 (ふじ3号)と現在までの情報   ===========  
  A.電話によるふじ3号の運用情報
      社団法人日本アマチュア連盟によるサービス
           TEL .   03− 3942 − 1000
  B.アマチュア無線FAXサービス
      JARLによるふじ3号の軌道情報(オービットカレンダー)
         FAX No.  03− 3233 −0055
  C.WWWブラウザで情報を簡単に見れる人のためにJAS−2
     ふじ3号の衛星としての運用されるまでの名前)の概要、打ち上げ
     までの状況、運用中における状況を説明したホームページを紹介し
     ておきます.
     社団法人日本アマチュア無線連盟(JARL)のホームページ

          http://www.jarl.or.jp/Japanese/3_Fuji
 
     宇宙開発事業団(NASDA)ホームページ 
          http://www.nasda.go.jp/
         打上げ衛星 :地球観測プラットフォーム技術衛星(ADEOS) 
                       アマチュア衛星3号(JAS-2)
          http://yyy.tksc.nasda.go.jp/Home/Press/Press-j/jas-2_j.html        

  D.JAMSATによる軌道情報の活用
        JAMSATのホームページまたはjamsat−kepsの軌道要素より
      衛星の軌道情報を得る.
     JAMSATホームページ
               URL    http://www.jamsat.or.jp
       上記ホームページでは各地で行われるアマチュア通信衛星に関する
      ミューティングのお知らせや世界のアマチュア衛星に関する情報が
      満載されています.
   
 =========================================================================
       JAMSATのメンバーのご協力によりJH6MME(高山 秀造)が
    執筆・編集を担当しております.ご指摘の意見、疑問やこのようにしたら
    というアイデアがありましたら小さなことでもかまいませんので気軽に下
    記アドレスまでご連絡ください.jamsat−newsからjas2
    infoへの転載をJH4PHW局坂井さんに担当して頂いております.
                    Eーmail : jh6mme@jamsat.or.jp : jh4phw@jamsat.or.jp
 ===============================   END  ===============================